Date,TemperatureHighF,TemperatureAvgF,TemperatureLowF,DewpointHighF,DewpointAvgF,DewpointLowF,HumidityHigh,HumidityAvg,HumidityLow,PressureMaxIn,PressureMinIn,WindSpeedMaxMPH,WindSpeedAvgMPH,GustSpeedMaxMPH,PrecipitationSumIn
2013-1-1,16,7,-10,8,2,-15,85,81,69,30.81,30.70,9,1,0,0.00
2013-1-2,13,0,-11,4,-5,-16,84,78,64,30.95,30.35,2,0,0,0.00
2013-1-3,24,7,0,11,-2,-100,85,72,53,30.33,30.28,2,-26,0,0.00
2013-1-4,24,4,-10,10,-1,-15,86,78,53,30.29,30.16,3,0,0,0.00
2013-1-5,23,5,-9,8,-2,-16,84,75,52,30.30,30.15,4,0,0,0.00
2013-1-6,29,14,3,20,8,-3,85,77,66,30.14,29.80,6,1,0,0.00
2013-1-7,25,13,-2,21,9,-7,88,83,78,29.90,29.79,18,2,0,0.00
2013-1-8,32,27,21,26,23,18,90,83,79,30.22,29.75,11,4,0,0.00
2013-1-9,43,37,30,27,24,18,80,60,39,30.22,29.54,13,4,0,0.04
2013-1-10,41,30,15,29,22,11,88,74,44,29.52,29.23,17,6,0,0.06
2013-1-11,16,7,-4,11,3,-9,84,82,78,30.06,29.38,12,4,0,0.00
2013-1-12,4,-7,-17,-2,-12,-23,90,77,72,30.42,30.06,3,0,0,0.00
2013-1-13,0,-10,-20,-7,-16,-25,80,76,70,30.59,30.42,4,0,0,0.00
2013-1-14,1,-8,-19,-4,-13,-25,89,77,73,30.71,30.59,5,1,0,0.00
2013-1-15,10,4,-3,4,0,-8,83,80,76,30.80,30.71,6,1,0,0.00
2013-1-16,18,7,-5,11,2,-9,85,80,70,30.82,30.54,2,0,0,0.09
2013-1-17,25,4,-11,17,-1,-16,87,80,67,30.64,30.47,3,0,0,0.03
2013-1-18,21,7,-6,15,2,-12,92,82,73,30.48,30.32,5,1,0,0.01
2013-1-19,23,6,-6,15,1,-11,85,80,68,30.49,30.38,3,0,0,0.01
2013-1-20,27,10,-4,15,4,-9,92,78,60,30.41,30.32,2,0,0,0.01
2013-1-21,28,9,-6,13,3,-12,92,76,53,30.35,30.25,4,0,0,0.00
2013-1-22,27,9,-6,14,3,-11,87,75,57,30.31,30.22,3,0,0,0.00
2013-1-23,43,21,6,21,11,0,81,65,39,30.23,29.93,11,1,0,0.00
2013-1-24,38,34,32,31,26,17,88,72,47,29.92,29.79,15,4,0,0.01
2013-1-25,42,36,31,29,27,26,81,72,58,29.87,29.63,7,1,0,0.00
2013-1-26,42,36,34,34,32,27,96,83,72,29.64,29.34,8,2,0,0.07
2013-1-27,34,28,21,31,25,17,92,89,84,29.45,29.26,4,0,0,0.13
2013-1-28,21,18,14,17,12,8,86,80,67,29.64,29.45,14,2,0,0.00
2013-1-29,20,16,10,15,12,7,92,84,76,29.89,29.53,7,2,0,0.00
2013-1-30,30,25,17,26,20,12,87,81,76,29.88,29.77,12,5,0,0.00
2013-1-31,32,29,27,27,24,21,89,78,73,29.92,29.82,15,6,0,0.00
2013-2-1,42,31,24,27,24,19,90,78,55,30.02,29.77,14,4,0,0.05
2013-2-2,35,26,11,25,21,7,90,79,64,30.14,30.02,13,2,0,0.01
2013-2-3,34,16,6,23,12,3,90,84,66,30.06,29.95,4,0,0,0.01
2013-2-4,33,23,10,25,19,7,91,85,71,30.02,29.86,7,1,0,0.00
2013-2-5,44,34,27,25,22,16,78,63,45,29.87,29.47,10,2,0,0.00
2013-2-6,32,25,18,24,19,13,89,77,58,30.16,29.48,9,2,0,0.01
2013-2-7,27,15,2,16,9,-3,87,77,61,30.21,30.02,2,0,0,0.00
2013-2-8,35,27,16,23,17,7,86,67,52,30.02,29.62,11,2,0,0.00
2013-2-9,39,25,19,21,18,15,88,77,46,29.75,29.57,4,0,0,0.00
2013-2-10,23,16,0,18,8,-8,88,73,57,30.16,29.75,17,4,0,0.01
2013-2-11,21,4,-9,6,-3,-14,82,71,51,30.49,30.16,4,0,0,0.01
2013-2-12,25,19,2,19,13,-3,87,80,69,30.49,30.33,10,2,0,0.00
2013-2-13,29,26,23,24,21,19,87,82,77,30.33,30.10,13,6,0,0.00
2013-2-14,35,24,12,24,18,9,90,78,53,30.35,30.12,5,1,0,0.02
2013-2-15,33,24,16,21,18,12,88,77,60,30.47,30.35,7,1,0,0.00
2013-2-16,41,30,24,25,21,16,82,71,52,30.44,29.84,9,1,0,0.00
2013-2-17,35,26,17,25,17,10,89,69,52,29.96,29.69,23,5,0,0.01
2013-2-18,30,20,8,16,11,2,82,70,49,30.10,29.97,6,1,0,0.00
2013-2-19,37,24,3,25,14,-2,89,68,43,29.98,29.66,15,4,0,0.00
2013-2-20,31,23,15,24,18,11,89,82,62,29.75,29.59,11,2,0,0.02
2013-2-21,25,20,15,20,16,12,89,84,72,29.98,29.75,6,2,0,0.10
2013-2-22,27,19,9,19,14,6,88,80,63,30.12,29.95,9,2,0,0.01
2013-2-23,26,22,15,22,18,10,90,84,68,29.94,29.64,19,5,0,0.03
2013-2-24,24,11,-4,13,4,-9,87,75,58,30.39,29.94,3,1,0,0.03
2013-2-25,27,19,4,16,12,-1,87,75,59,30.40,30.02,9,2,0,0.00
2013-2-26,26,16,3,15,10,-2,88,79,62,30.40,30.00,6,1,0,0.02
2013-2-27,30,16,4,15,9,-1,86,74,52,30.50,30.40,5,1,0,0.00
2013-2-28,30,21,9,22,16,4,88,79,66,30.51,30.43,5,2,0,0.01
2013-3-1,35,30,24,31,26,21,91,84,76,30.50,30.41,10,2,0,0.02
2013-3-2,45,36,31,31,30,28,87,77,59,30.41,29.91,6,1,0,0.00
2013-3-3,38,33,21,32,28,16,90,82,68,29.90,29.58,32,10,0,0.39
2013-3-4,24,16,6,15,7,-1,92,68,50,30.36,29.79,7,1,0,0.05
2013-3-5,31,16,2,17,7,-4,80,68,51,30.40,30.10,5,1,0,0.00
2013-3-6,44,33,15,32,23,8,91,69,47,30.09,29.64,22,5,0,0.00
2013-3-7,32,26,19,23,18,13,81,72,58,29.94,29.81,5,1,0,0.12
2013-3-8,40,30,21,31,25,18,91,84,69,29.89,29.73,6,1,0,0.04
2013-3-9,34,26,15,25,19,9,92,76,53,30.25,29.77,11,3,0,0.00
2013-3-10,34,23,10,25,16,6,85,75,59,30.38,30.22,7,1,0,0.00
2013-3-11,39,33,26,27,21,16,85,63,48,30.21,30.00,11,4,0,0.02
2013-3-12,39,30,13,30,20,6,77,66,46,30.27,30.08,10,1,0,0.00
2013-3-13,47,41,35,32,30,29,81,67,52,30.20,30.09,10,2,0,0.00
2013-3-14,55,43,32,32,29,25,79,59,40,30.12,29.93,7,1,0,0.00
2013-3-15,49,45,40,30,28,25,64,51,42,29.93,29.74,13,5,0,0.00
2013-3-16,46,38,32,30,26,22,82,62,46,29.76,29.54,19,4,0,0.00
2013-3-17,36,26,16,30,17,7,91,69,42,29.89,29.44,26,9,0,0.02
2013-3-18,31,24,11,22,13,5,76,64,55,30.04,29.89,25,6,0,0.01
2013-3-19,38,24,7,18,8,1,79,54,24,30.27,30.05,6,1,0,0.00
2013-3-20,39,34,20,34,24,6,89,70,33,30.17,29.54,12,4,0,0.08
2013-3-21,36,27,20,32,23,15,92,83,69,29.85,29.47,21,7,0,0.25
2013-3-22,25,18,7,16,12,4,92,78,55,30.03,29.82,14,2,0,0.03
2013-3-23,25,11,-3,10,3,-7,85,70,49,30.34,30.03,10,1,0,0.00
2013-3-24,28,14,3,11,5,-2,84,68,39,30.35,30.30,5,1,0,0.01
2013-3-25,31,15,0,15,6,-5,80,67,45,30.36,30.20,5,1,0,0.00
2013-3-26,38,25,13,30,16,-100,85,76,69,30.20,29.89,7,-15,0,0.00
2013-3-27,46,34,28,32,28,23,91,79,55,29.95,29.89,6,1,0,0.00
2013-3-28,47,36,25,32,27,20,85,70,52,30.00,29.94,4,1,0,0.00
2013-3-29,48,39,32,35,32,25,87,74,54,30.01,29.96,18,3,0,0.07
2013-3-30,46,39,30,35,29,22,89,70,44,30.07,29.97,12,2,0,0.00
2013-3-31,54,40,26,36,27,20,81,63,43,30.03,29.81,9,2,0,0.00
2013-4-1,55,41,27,34,28,21,79,62,41,29.82,29.69,11,2,0,0.00
2013-4-2,58,41,27,37,29,22,92,64,30,30.11,29.77,10,2,0,0.00
2013-4-3,56,45,32,35,31,23,75,58,38,30.13,30.07,12,3,0,0.00
2013-4-4,60,50,39,37,33,30,73,54,38,30.09,29.84,18,5,0,0.00
2013-4-5,48,41,34,38,34,29,91,78,62,29.99,29.78,24,6,0,0.38
2013-4-6,43,38,33,36,31,26,85,75,65,30.03,29.94,20,5,0,0.06
2013-4-7,41,37,33,36,31,27,90,79,69,29.95,29.70,20,6,0,0.23
2013-4-8,39,33,28,33,28,17,92,81,64,29.80,29.60,19,3,0,0.02
2013-4-9,41,32,23,21,17,12,80,57,38,30.23,29.80,13,4,0,0.00
2013-4-10,46,33,17,33,21,13,83,63,43,30.29,29.98,10,2,0,0.00
2013-4-11,49,39,32,33,30,25,92,70,41,30.02,29.89,18,4,0,0.02
2013-4-12,50,37,22,31,23,17,91,62,28,30.09,29.86,16,2,0,0.00
2013-4-13,45,37,25,35,27,15,90,69,38,29.83,29.43,28,12,0,0.33
2013-4-14,37,28,22,17,13,10,77,54,33,29.94,29.77,13,4,0,0.00
2013-4-15,37,27,20,26,19,13,89,74,43,29.97,29.83,14,2,0,0.03
2013-4-16,32,26,22,24,20,15,87,77,62,30.18,29.93,10,3,0,0.01
2013-4-17,34,24,16,16,11,7,70,57,39,30.42,30.18,19,6,0,0.00
2013-4-18,42,28,10,17,11,4,76,52,33,30.50,30.40,13,3,0,0.00
2013-4-19,43,36,30,32,24,16,88,65,46,30.39,30.00,14,6,0,0.08
2013-4-20,40,36,33,33,31,29,90,83,75,30.14,30.05,13,5,0,0.52
2013-4-21,48,40,32,32,27,24,81,63,42,30.18,29.92,28,9,0,0.00
2013-4-22,37,31,23,28,22,14,91,71,45,30.34,29.96,18,8,0,0.00
2013-4-23,40,28,13,17,12,8,82,55,29,30.45,30.29,13,2,0,0.00
2013-4-24,49,34,17,22,17,11,86,54,30,30.45,30.24,10,2,0,0.00
2013-4-25,56,43,25,22,18,15,67,40,22,30.23,30.00,20,6,0,0.00
2013-4-26,61,47,25,28,22,17,72,41,22,30.23,30.08,15,4,0,0.00
2013-4-27,65,52,32,33,28,23,72,41,23,30.23,29.95,19,7,0,0.00
2013-4-28,57,52,45,33,27,23,44,39,33,29.95,29.80,22,10,0,0.00
2013-4-29,54,47,36,33,26,20,57,45,40,29.84,29.59,43,15,0,0.00
2013-4-30,42,33,24,25,19,14,89,59,36,30.15,29.68,15,3,0,0.00
2013-5-1,42,31,23,24,18,11,89,62,30,30.74,30.16,14,4,0,0.08
2013-5-2,55,36,17,24,16,10,75,49,24,30.84,30.51,8,2,0,0.00
2013-5-3,59,44,27,27,22,17,69,45,21,30.51,30.05,12,2,0,0.00
2013-5-4,53,45,36,37,31,26,77,59,45,30.05,29.97,14,4,0,0.02
2013-5-5,63,50,41,35,33,30,69,51,36,30.05,29.89,19,6,0,0.00
2013-5-6,66,52,33,37,33,27,80,51,26,29.93,29.78,19,3,0,0.00
2013-5-7,66,49,32,42,36,28,87,63,29,29.95,29.76,19,4,0,0.01
2013-5-8,68,50,32,43,35,30,92,63,26,30.07,29.95,15,2,0,0.01
2013-5-9,66,51,33,41,35,28,85,58,33,30.13,30.01,19,2,0,0.03
2013-5-10,69,53,32,39,32,24,85,51,20,30.23,30.12,13,3,0,0.00
2013-5-11,71,55,34,41,33,27,74,47,24,30.27,30.11,15,4,0,0.00
2013-5-12,77,62,42,44,38,33,74,46,28,30.14,29.95,16,5,0,0.00
2013-5-13,79,66,49,43,39,35,63,39,25,29.97,29.73,16,4,0,0.00
2013-5-14,73,62,50,42,35,30,51,38,25,29.81,29.72,23,3,0,0.00
2013-5-15,73,61,46,41,36,30,57,41,29,29.81,29.63,25,5,0,0.00
2013-5-16,64,54,47,46,41,37,89,62,42,29.76,29.61,16,4,0,0.06
2013-5-17,52,48,44,44,42,39,88,80,66,29.88,29.74,10,3,0,0.24
2013-5-18,46,42,40,41,39,36,91,86,79,30.03,29.86,9,2,0,1.06
2013-5-19,46,42,39,41,39,36,92,89,80,30.11,30.00,14,2,0,0.61
2013-5-20,54,45,38,44,40,35,92,82,64,30.18,30.09,14,3,0,0.12
2013-5-21,65,50,32,44,37,29,93,66,34,30.10,29.73,14,3,0,0.01
2013-5-22,67,54,42,45,37,25,67,53,38,29.75,29.52,20,7,0,0.01
2013-5-23,62,47,36,41,34,27,82,62,39,29.96,29.71,12,4,0,0.00
2013-5-24,61,48,34,33,27,22,84,48,26,30.04,29.91,21,6,0,0.00
2013-5-25,68,52,33,40,30,21,73,45,26,29.93,29.81,20,4,0,0.00
2013-5-26,69,52,36,41,35,28,82,57,28,29.88,29.78,23,4,0,0.01
2013-5-27,58,49,40,41,37,33,88,64,42,29.88,29.79,15,5,0,0.04
2013-5-28,54,46,41,42,40,37,90,80,56,29.84,29.65,10,2,0,0.09
2013-5-29,52,45,42,42,40,35,92,82,66,29.79,29.70,11,3,0,0.00
2013-5-30,51,44,39,39,36,33,89,74,55,29.99,29.78,17,5,0,0.01
2013-5-31,57,45,34,35,33,29,88,63,36,30.25,29.98,15,4,0,0.15
2013-6-1,62,43,28,37,31,25,88,66,35,30.28,30.16,5,1,0,0.00
2013-6-2,74,65,53,42,35,-100,63,37,29,29.87,29.56,20,-22,0,0.00
2013-6-3,61,48,33,41,34,28,85,61,33,30.17,29.88,16,4,0,0.00
2013-6-4,62,50,38,39,35,32,85,59,33,30.33,30.17,14,3,0,0.00
2013-6-5,70,53,31,44,37,27,86,58,34,30.38,30.22,9,2,0,0.00
2013-6-6,73,58,41,47,41,34,78,56,34,30.24,30.11,9,1,0,0.00
2013-6-7,76,60,40,52,43,35,82,56,30,30.16,29.87,16,4,0,0.00
2013-6-8,74,63,42,47,41,35,80,46,29,30.05,29.89,10,3,0,0.00
2013-6-9,80,66,42,48,42,34,76,43,29,30.08,29.86,18,6,0,0.00
2013-6-10,84,71,56,55,44,28,67,40,20,29.88,29.67,20,5,0,0.00
2013-6-11,74,65,52,48,40,28,69,42,29,30.02,29.72,21,5,0,0.00
2013-6-12,67,58,48,52,45,40,84,64,45,30.14,30.02,14,4,0,0.05
2013-6-14,58,50,37,37,28,-100,69,47,36,30.36,0.00,11,-22,0,0.00
2013-6-15,72,53,29,41,31,23,83,50,19,30.38,30.19,17,3,0,0.00
2013-6-16,80,59,36,46,36,29,79,48,21,30.23,30.09,16,3,0,0.00
2013-6-17,80,62,40,48,38,32,75,47,21,30.18,30.04,12,2,0,0.00
2013-6-18,84,64,42,49,39,32,69,44,17,30.05,29.73,12,3,0,0.00
2013-6-19,70,59,45,42,37,31,77,47,28,30.07,29.60,18,6,0,0.00
2013-6-20,62,48,32,36,30,26,81,53,30,30.22,30.07,16,5,0,0.00
2013-6-21,64,49,34,40,34,28,80,58,37,30.23,30.14,13,2,0,0.00
2013-6-22,62,49,34,38,34,29,82,58,35,30.25,30.18,14,3,0,0.00
2013-6-23,74,56,34,40,34,28,80,48,25,30.22,29.88,13,3,0,0.00
2013-6-24,76,60,44,48,41,34,85,53,29,29.95,29.73,23,5,0,0.01
2013-6-25,69,57,49,52,47,44,89,72,46,30.13,29.95,12,4,0,0.23
2013-6-26,76,62,48,54,50,46,91,66,38,30.24,30.11,20,4,0,0.00
2013-6-27,86,65,46,55,48,41,86,59,27,30.31,30.23,11,2,0,0.00
2013-6-28,88,69,49,53,46,-100,80,49,23,30.28,30.14,10,-9,0,0.00
2013-6-29,90,69,49,53,47,39,72,48,23,30.20,30.02,20,3,0,0.00
2013-6-30,89,73,54,59,51,45,74,49,24,30.18,30.02,9,2,0,0.00
2013-7-1,88,71,51,56,51,44,80,53,22,30.19,30.07,12,2,0,0.00
2013-7-2,91,72,49,60,51,42,80,52,28,30.18,30.01,13,3,0,0.00
2013-7-3,87,72,54,58,52,47,78,53,29,30.11,29.89,12,2,0,0.00
2013-7-4,84,71,58,57,53,50,75,54,37,29.96,29.79,14,3,0,0.00
2013-7-5,83,71,61,53,50,43,68,48,32,29.87,29.76,19,6,0,0.00
2013-7-6,76,60,51,57,47,42,81,64,40,30.05,29.87,13,3,0,0.14
2013-7-7,84,65,47,56,48,41,83,56,35,30.09,29.96,23,5,0,0.00
2013-7-8,82,65,48,55,47,41,79,54,30,30.09,30.02,15,4,0,0.00
2013-7-9,86,69,47,48,43,39,75,42,20,30.20,30.09,12,2,0,0.00
2013-7-10,87,60,51,54,39,-100,64,52,25,30.14,29.93,5,-30,0,0.00
2013-7-11,82,67,53,51,44,36,86,47,27,30.05,29.90,14,5,0,0.01
2013-7-12,78,64,45,50,46,42,91,57,31,30.09,30.00,13,3,0,0.00
2013-7-13,79,65,54,54,48,41,65,55,38,30.14,30.04,16,4,0,0.01
2013-7-14,84,67,49,52,46,40,74,50,26,30.22,30.06,18,4,0,0.06
2013-7-15,87,67,44,51,42,36,73,46,17,30.14,29.96,18,2,0,0.00
2013-7-16,85,66,51,58,49,40,69,56,35,30.14,30.00,13,2,0,0.01
2013-7-17,83,65,57,58,52,-100,89,69,38,30.20,30.06,10,-14,0,0.00
2013-7-18,88,71,52,55,48,44,77,48,22,30.16,30.06,14,3,0,0.00
2013-7-19,89,69,45,55,44,38,77,45,18,30.14,29.99,11,2,0,0.00
2013-7-20,87,68,47,47,40,35,67,42,16,30.04,29.89,14,2,0,0.00
2013-7-21,87,70,48,48,40,31,65,37,16,29.95,29.87,7,2,0,0.00
2013-7-22,89,73,54,39,32,27,46,24,11,30.00,29.90,14,4,0,0.00
2013-7-23,86,67,45,51,35,26,54,33,16,30.10,29.94,11,2,0,0.00
2013-7-24,86,68,48,53,41,34,65,41,20,30.20,30.03,14,2,0,0.00
2013-7-25,87,68,45,48,42,34,68,41,19,30.31,30.20,14,3,0,0.00
2013-7-26,89,72,50,52,43,37,64,40,19,30.35,30.19,10,2,0,0.00
2013-7-27,56,41,50,51,16,-100,89,67,83,30.15,30.13,2,-222,0,0.00
2013-7-28,78,58,44,53,47,40,91,69,32,30.16,30.04,23,3,0,0.03
2013-7-29,79,59,42,56,46,38,87,63,34,30.21,30.09,14,3,0,0.11
2013-7-30,83,68,54,51,46,37,66,46,22,30.27,30.17,15,5,0,0.00
2013-7-31,82,63,45,55,47,38,81,59,27,30.31,30.15,15,2,0,0.09
2013-8-1,86,72,51,50,46,40,81,44,22,30.26,29.85,18,6,0,0.00
2013-8-2,79,66,49,41,37,32,62,36,20,30.11,29.91,19,5,0,0.00
2013-8-3,82,63,43,45,38,32,70,44,21,30.23,30.12,14,2,0,0.00
2013-8-4,86,65,43,47,37,30,66,40,17,30.22,30.10,14,3,0,0.00
2013-8-5,88,69,45,45,35,29,56,32,15,30.16,29.96,20,5,0,0.00
2013-8-6,83,68,45,45,38,31,61,36,21,30.09,29.99,16,3,0,0.00
2013-8-7,85,66,44,43,37,31,64,37,16,30.12,30.00,15,3,0,0.00
2013-8-8,85,64,48,47,39,31,71,41,23,30.19,30.01,16,4,0,0.01
2013-8-9,83,68,54,49,43,37,74,44,19,30.18,30.04,17,3,0,0.00
2013-8-10,84,71,59,44,40,35,46,34,19,30.15,30.03,13,4,0,0.00
2013-8-11,83,68,52,47,39,36,55,36,21,30.17,30.06,13,4,0,0.00
2013-8-12,81,65,48,45,39,34,59,40,24,30.21,30.13,21,3,0,0.00
2013-8-13,82,64,46,49,41,35,68,46,25,30.30,30.18,13,3,0,0.07
2013-8-14,85,65,48,46,41,37,70,45,19,30.26,30.12,12,2,0,0.00
2013-8-15,88,66,47,45,36,31,60,38,14,30.21,30.13,10,2,0,0.00
2013-8-16,91,70,46,44,35,29,55,31,13,30.19,30.09,13,2,0,0.00
2013-8-17,89,70,50,48,38,31,53,33,17,30.16,30.04,13,3,0,0.00
2013-8-18,88,72,53,49,42,37,62,36,20,30.13,30.04,12,2,0,0.00
2013-8-19,89,73,57,44,40,37,49,32,18,30.14,30.02,10,3,0,0.00
2013-8-20,77,66,61,47,40,-100,52,41,29,30.06,29.98,6,-16,0,0.00
2013-8-21,78,65,53,53,48,41,74,55,38,30.22,30.05,15,3,0,0.00
2013-8-22,83,70,52,53,49,45,79,51,32,30.24,30.02,11,4,0,0.00
2013-8-23,83,65,54,54,49,45,79,60,31,30.10,29.93,17,6,0,0.14
2013-8-24,80,63,48,54,48,44,89,62,31,30.23,30.02,13,3,0,0.00
2013-8-25,82,67,49,50,46,42,82,51,29,30.23,30.08,15,3,0,0.00
2013-8-26,78,66,53,55,49,43,81,57,38,30.19,30.10,16,4,0,0.00
2013-8-27,77,63,49,54,49,43,81,62,40,30.24,30.15,11,2,0,0.01
2013-8-28,78,62,51,57,51,45,91,68,42,30.26,30.13,16,4,0,0.91
2013-8-29,79,61,48,59,51,46,92,73,41,30.33,30.24,10,1,0,0.09
2013-8-30,85,68,51,55,48,41,83,53,25,30.29,30.13,17,3,0,0.00
2013-8-31,82,66,49,45,38,34,61,38,21,30.21,30.11,8,2,0,0.00
2013-9-1,86,64,42,47,39,33,71,46,19,30.23,30.09,8,1,0,0.00
2013-9-2,70,60,53,58,52,39,93,76,40,30.23,30.07,14,1,0,0.33
2013-9-3,81,65,55,58,55,53,94,75,40,30.30,30.15,13,2,0,0.52
2013-9-4,80,66,55,60,56,53,94,74,42,30.32,30.23,9,2,0,0.00
2013-9-5,83,66,53,59,53,47,90,66,34,30.27,30.09,11,2,0,0.01
2013-9-6,80,61,53,56,51,47,84,71,38,30.23,30.11,11,2,0,0.14
2013-9-7,75,62,51,55,51,47,88,68,38,30.25,30.18,8,2,0,0.00
2013-9-8,71,58,50,53,48,42,86,73,40,30.21,30.09,18,3,0,0.21
2013-9-9,67,50,45,49,42,-100,90,79,48,30.25,30.12,4,-15,0,0.00
2013-9-10,77,58,41,51,45,38,92,66,34,30.30,30.20,8,1,0,0.00
2013-9-11,76,61,43,51,46,38,86,59,37,30.32,30.25,12,3,0,0.00
2013-9-12,72,63,54,54,48,43,88,61,44,30.31,30.16,15,3,0,0.04
2013-9-13,75,59,46,52,47,42,90,66,40,30.18,29.97,10,2,0,0.05
2013-9-14,70,59,49,54,50,46,93,75,53,30.16,30.04,10,2,0,0.00
2013-9-15,72,60,49,52,48,45,87,68,44,30.21,30.16,13,3,0,0.00
2013-9-16,77,61,47,55,50,42,87,67,43,30.19,30.01,12,3,0,0.01
2013-9-17,72,60,50,50,46,43,86,62,39,30.07,29.74,18,5,0,0.25
2013-9-18,55,48,38,45,39,34,89,72,47,30.35,29.82,26,8,0,0.09
2013-9-19,58,44,31,39,35,29,92,73,46,30.53,30.35,7,1,0,0.00
2013-9-20,72,49,29,39,32,25,88,58,24,30.48,30.16,13,2,0,0.00
2013-9-21,74,60,43,40,35,31,66,42,24,30.16,29.74,19,5,0,0.00
2013-9-22,66,53,42,44,39,34,83,60,34,30.00,29.70,14,4,0,0.00
2013-9-23,59,48,37,38,34,31,78,60,42,30.31,30.00,17,6,0,0.00
2013-9-24,67,53,36,37,34,30,90,53,29,30.31,29.92,22,5,0,0.00
2013-9-25,51,41,32,41,36,28,90,82,60,30.04,29.80,16,4,0,0.43
2013-9-26,40,34,30,35,30,-100,95,86,75,30.24,30.04,10,-9,0,0.22
2013-9-27,42,35,32,33,31,29,92,84,67,30.33,29.98,9,3,0,0.05
2013-9-28,53,43,36,37,33,29,83,69,55,30.19,30.01,15,4,0,0.00
2013-9-29,52,49,45,40,34,29,79,57,44,30.01,29.76,25,6,0,0.04
2013-9-30,60,52,42,43,39,30,83,64,48,29.85,29.64,26,11,0,0.11
2013-10-1,61,47,31,43,34,25,85,64,46,29.94,29.82,14,3,0,0.00
2013-10-2,55,44,34,39,34,28,85,69,50,29.96,29.73,14,2,0,0.04
2013-10-3,43,36,30,35,30,27,91,80,62,30.05,29.71,15,6,0,0.20
2013-10-4,42,33,25,29,25,21,87,75,54,30.48,30.06,14,4,0,0.02
2013-10-5,49,33,16,30,24,15,95,73,45,30.59,30.48,7,1,0,0.00
2013-10-6,61,40,24,34,28,20,88,66,32,30.56,30.25,7,1,0,0.01
2013-10-7,65,46,26,40,29,20,82,57,30,30.25,29.82,17,4,0,0.00
2013-10-8,52,42,27,32,28,22,89,59,42,29.85,29.71,19,4,0,0.00
2013-10-9,59,38,22,38,29,18,88,73,38,29.89,29.81,13,2,0,0.00
2013-10-10,55,42,32,40,36,29,94,80,52,29.84,29.58,14,2,0,0.09
2013-10-11,47,39,30,36,29,23,89,70,47,30.05,29.74,7,2,0,0.00
2013-10-12,48,35,25,34,27,21,86,75,51,30.09,30.02,14,2,0,0.00
2013-10-13,42,38,33,33,32,29,89,81,71,30.02,29.93,10,2,0,0.11
2013-10-14,38,35,30,34,30,25,91,82,73,30.31,30.10,14,4,0,0.05
2013-10-15,46,31,20,28,23,17,89,74,44,30.41,30.29,7,1,0,0.01
2013-10-16,46,32,18,30,21,-100,95,70,44,30.33,30.20,11,-8,0,0.01
2013-10-17,43,34,26,30,25,22,92,72,47,30.26,30.12,13,2,0,0.00
2013-10-18,46,32,19,27,21,15,88,67,40,30.37,30.26,7,1,0,0.00
2013-10-19,53,38,21,32,26,18,92,62,39,30.33,30.06,14,3,0,0.00
2013-10-20,51,40,26,31,26,21,82,61,39,30.14,29.99,10,2,0,0.00
2013-10-21,55,37,24,34,26,19,86,68,43,30.30,30.14,5,1,0,0.00
2013-10-22,50,30,26,34,25,21,86,81,55,30.32,30.29,2,0,0,0.00
2013-10-26,61,47,31,35,27,-100,79,50,32,30.33,0.00,7,-15,0,0.00
2013-10-27,59,42,29,31,25,21,75,53,28,30.17,29.66,14,3,0,0.00
2013-10-28,50,43,32,35,31,23,91,65,39,29.73,29.46,24,7,0,0.26
2013-10-29,38,34,32,33,31,28,92,89,78,29.94,29.71,11,1,0,0.20
2013-10-30,33,32,32,31,26,-100,92,85,82,30.09,29.90,10,-17,0,0.03
2013-10-31,36,33,32,32,29,28,90,85,78,30.18,30.08,15,5,0,0.04
2013-11-1,43,35,28,32,29,25,91,79,58,30.35,30.15,12,2,0,0.05
2013-11-2,52,41,30,33,29,26,87,64,44,30.27,29.66,16,5,0,0.00
2013-11-3,41,29,22,32,21,16,86,71,57,30.04,29.67,18,7,0,0.00
2013-11-4,29,22,13,19,15,8,92,76,60,30.26,30.04,11,3,0,0.00
2013-11-5,30,22,12,21,15,9,88,76,59,30.48,30.26,12,2,0,0.00
2013-11-6,36,31,25,30,26,21,87,82,75,30.49,30.41,15,2,0,0.01
2013-11-7,44,38,33,35,32,28,91,79,61,30.45,29.86,14,4,0,0.13
2013-11-8,44,39,36,32,24,14,72,56,33,30.07,29.85,21,8,0,0.01
2013-11-9,49,38,28,31,25,20,82,62,44,30.26,30.07,11,3,0,0.00
2013-11-10,56,40,30,34,28,24,81,65,39,30.30,30.20,12,2,0,0.00
2013-11-11,57,40,27,33,27,22,82,62,35,30.47,30.23,11,2,0,0.00
2013-11-12,62,41,21,29,24,16,82,56,26,30.53,30.32,7,2,0,0.00
2013-11-13,48,41,32,37,30,24,89,68,43,30.32,30.11,10,3,0,0.07
2013-11-14,42,33,26,32,28,22,92,81,57,30.19,29.79,7,1,0,0.01
2013-11-15,34,31,26,27,23,18,88,73,63,29.80,29.62,11,4,0,0.00
2013-11-16,31,27,18,26,22,13,89,83,64,29.77,29.45,37,9,0,0.01
2013-11-17,33,27,18,23,19,13,84,72,60,30.27,29.77,19,6,0,0.00
2013-11-18,46,37,25,27,24,17,79,59,46,30.27,29.89,13,4,0,0.10
2013-11-19,44,37,34,33,30,25,89,77,48,29.90,29.79,16,4,0,0.23
2013-11-20,39,34,23,33,30,21,92,86,77,29.98,29.75,13,4,0,0.27
2013-11-21,27,18,6,20,14,1,89,83,69,30.74,29.98,5,1,0,0.04
2013-11-22,34,16,3,22,9,-2,85,77,58,30.86,30.74,4,0,0,0.01
2013-11-23,39,20,7,27,14,3,86,76,50,30.76,30.46,5,1,0,0.01
2013-11-24,38,22,12,22,14,6,85,71,43,30.46,30.34,4,1,0,0.00
2013-11-25,37,25,16,24,19,12,92,77,54,30.60,30.44,3,1,0,0.00
2013-11-26,45,27,15,31,20,11,88,77,57,30.63,30.42,3,0,0,0.00
2013-11-27,46,30,19,31,22,15,85,74,48,30.42,30.21,5,1,0,0.01
2013-11-28,46,30,21,30,22,16,83,74,49,30.28,30.18,3,1,0,0.00
2013-11-29,45,30,20,29,22,16,84,74,47,30.38,30.27,7,1,0,0.00
2013-11-30,40,33,25,30,26,20,88,75,60,30.38,30.30,12,2,0,0.00
2013-12-1,40,35,33,34,31,29,91,85,75,30.29,29.91,29,10,0,0.28
2013-12-2,41,38,25,33,29,22,89,71,63,29.90,29.45,36,20,0,0.04
2013-12-3,25,9,-4,22,2,-100,89,78,74,29.97,29.52,17,-7,0,0.00
2013-12-4,8,-6,-14,-2,-16,-100,90,73,64,30.43,29.98,2,-38,0,0.00
2013-12-5,10,-3,-13,0,-9,-18,82,75,55,30.45,30.32,4,0,0,0.00
2013-12-6,10,-1,-12,-1,-8,-18,80,71,57,30.44,30.29,10,2,0,0.00
2013-12-7,15,11,6,10,4,-4,85,75,60,30.28,29.84,10,3,0,0.00
2013-12-8,6,-1,-16,2,-6,-21,83,78,66,30.50,29.98,10,1,0,0.00
2013-12-9,8,-4,-20,2,-10,-25,80,73,65,30.78,30.21,11,3,0,0.00
2013-12-10,17,10,1,7,3,-4,84,73,60,30.20,29.89,10,2,0,0.00
2013-12-11,20,7,-5,10,1,-10,92,78,64,30.18,29.98,4,1,0,0.05
2013-12-12,26,12,2,16,6,-3,88,80,64,30.15,29.77,3,0,0,0.07
2013-12-13,21,14,2,16,10,-2,88,84,77,30.00,29.71,5,1,0,0.00
2013-12-14,29,23,15,24,19,11,88,84,80,30.05,29.94,9,3,0,0.00
2013-12-15,32,22,8,24,17,4,90,80,63,29.94,29.81,9,2,0,0.00
2013-12-16,34,20,7,20,14,2,88,77,56,30.44,29.87,6,1,0,0.02
2013-12-17,46,26,8,23,16,4,88,66,36,30.46,29.98,7,2,0,0.03
2013-12-18,45,32,17,23,19,10,77,60,40,29.99,29.44,8,2,0,0.00
2013-12-19,34,19,0,24,14,-5,89,81,59,29.83,29.38,18,3,0,0.00
2013-12-20,19,12,-1,13,7,-6,85,81,72,29.94,29.74,7,1,0,0.00
2013-12-21,24,19,16,18,15,13,89,84,74,29.97,29.65,5,1,0,0.03
2013-12-22,26,21,15,22,17,11,91,84,75,30.20,29.96,9,2,0,0.00
2013-12-23,34,31,24,31,27,19,92,86,80,30.20,29.89,16,5,0,0.03
2013-12-24,36,23,15,31,15,-100,90,73,57,30.48,29.84,29,-5,0,0.12
2013-12-25,29,15,5,16,8,0,86,75,60,30.66,30.49,5,1,0,0.02
2013-12-26,34,19,9,18,12,4,86,75,53,30.62,30.49,5,1,0,0.07
2013-12-27,28,16,6,19,10,1,87,78,67,30.55,30.20,3,1,0,0.01
2013-12-28,29,20,9,21,14,5,92,79,66,30.34,30.13,10,2,0,0.01
2013-12-29,25,13,-8,17,8,-12,87,80,71,30.50,30.33,12,2,0,0.00
2013-12-30,30,24,18,25,17,15,89,75,63,30.41,30.19,10,2,0,0.00
2013-12-31,34,30,20,27,24,17,90,79,70,30.21,29.97,17,4,0,0.02
2014-1-1,20,13,4,18,10,0,92,86,79,30.55,30.08,2,0,0,0.07
2014-1-2,34,23,4,25,18,0,92,81,68,30.57,30.15,7,1,0,0.01